Wind_Speed
3 2 2 4 6 7 7 8 7 7 7 6 6 6 6 5 5 5 6 6 6 6 6 6 7 7 7 6 6 6 6 6 5 5 6 6 7 7 8 8 7 7 7
2 2 3 3 4 5 6 6 6 7 7 6 6 6 6 7 7 7 7 7 6 7 7 7 7 7 7 7 7 7 7 7 6 6 6 7 8 8 9 8 8 9 8
2 3 3 3 3 4 4 4 4 5 5 5 6 6 6 7 7 8 8 8 8 8 8 7 7 7 7 7 7 8 8 8 8 8 8 8 9 9 9 8 8 9 9
2 2 3 3 3 4 4 4 4 5 5 5 5 6 6 6 7 7 8 8 8 8 8 7 8 8 8 8 8 9 9 9 9 8 9 9 9 10 9 9 9 9 10
1 1 2 3 4 4 4 4 4 5 5 6 6 6 7 7 7 7 8 8 8 8 8 8 8 8 9 9 9 9 9 9 9 10 10 11 11 10 10 9 9 10 10
1 1 1 3 3 3 4 4 4 5 6 6 6 7 7 7 8 8 8 8 8 8 8 8 8 8 8 9 10 11 10 10 10 11 11 11 11 11 10 10 11 11 11
2 2 2 3 3 3 4 4 5 6 6 6 7 7 7 8 8 8 8 8 8 8 8 8 8 8 9 10 11 11 12 12 12 12 12 12 13 12 12 11 11 11 11
2 3 3 3 3 4 4 5 6 6 6 6 7 7 7 8 7 8 8 8 8 8 9 9 9 9 10 11 11 12 12 13 13 13 13 14 13 12 12 12 12 12 12
3 3 4 4 4 4 5 5 6 6 6 7 8 8 8 8 8 8 9 8 9 9 10 10 9 10 12 12 11 11 12 13 13 12 12 11 12 11 11 11 12 13 12
3 4 4 4 5 5 5 5 6 7 7 7 8 8 8 8 9 9 10 10 10 10 10 11 11 11 11 11 11 12 12 13 13 12 12 12 12 12 12 12 13 13 13
5 5 5 5 6 6 6 5 6 7 7 8 8 9 9 9 9 10 11 11 12 12 12 13 12 12 12 12 12 12 12 12 12 13 13 13 13 14 14 14 14 14 14
6 6 6 6 6 6 6 7 7 8 8 9 9 9 9 9 10 11 11 12 13 14 14 13 13 14 13 13 13 13 13 14 14 15 15 14 15 15 16 16 15 16 16
7 7 7 7 7 8 8 8 8 9 9 10 10 10 10 10 12 12 13 14 15 15 15 14 14 14 14 14 15 15 15 16 16 17 17 16 16 17 17 17 18 18 18
8 8 8 8 8 8 9 9 9 10 11 11 11 11 12 12 14 14 15 16 16 16 16 16 16 16 16 16 16 17 17 18 18 19 19 18 18 19 18 19 19 20 20
9 10 10 10 10 10 10 11 11 11 12 12 13 13 14 14 15 16 17 17 17 16 16 17 17 17 18 18 18 18 18 19 20 21 20 19 19 19 19 20 20 21 21
11 11 11 12 12 12 12 13 13 13 13 13 14 15 15 15 16 17 17 17 18 18 18 17 18 18 18 18 18 18 19 20 20 21 21 21 21 20 21 22 22 22 22
14 14 14 14 14 14 14 15 15 15 15 15 16 16 17 17 17 18 18 18 19 19 18 18 18 18 18 19 19 19 20 20 21 21 21 22 22 22 22 23 23 23 23
16 16 16 16 16 16 17 17 17 18 18 18 18 19 19 19 19 19 19 19 19 19 19 18 19 20 20 20 20 21 21 21 22 22 23 23 23 23 24 24 24 24 24
18 18 17 17 17 18 18 18 19 19 20 20 21 21 21 21 21 21 21 21 21 21 21 21 21 21 22 22 23 22 23 23 24 24 24 25 25 25 25 24 24 24 24
20 19 19 19 19 20 20 20 21 22 22 23 23 23 23 23 22 23 23 23 23 23 23 23 24 24 24 24 24 25 24 25 25 26 27 26 26 26 26 25 25 26 25
21 21 22 22 22 22 22 22 23 23 24 24 24 24 24 24 25 25 25 26 26 25 25 26 25 25 25 26 26 27 27 27 27 28 28 27 26 27 27 27 27 27 27
22 23 23 24 24 24 25 25 25 25 25 25 25 25 26 26 27 28 28 28 28 28 28 28 27 27 27 27 28 28 28 28 28 28 28 29 29 29 29 29 28 28 28
22 23 24 25 25 25 26 26 27 27 27 27 27 27 28 29 30 30 30 31 30 30 30 29 29 29 29 29 30 30 31 31 30 29 30 30 31 31 31 31 30 30 29
24 25 25 26 26 27 28 28 28 29 29 29 29 30 30 31 31 31 31 31 30 30 30 30 31 31 31 32 33 33 34 34 32 31 32 32 31 32 32 32 32 31 31
26 26 27 27 27 28 28 29 30 30 30 31 32 32 33 33 33 33 33 33 33 33 33 33 33 34 34 34 35 35 36 35 35 34 34 34 33 33 33 33 33 32 32
27 28 29 29 28 29 29 30 30 31 31 32 33 33 34 35 35 35 35 35 35 35 35 35 35 36 36 36 36 37 37 36 36 36 35 35 35 35 34 33 33 34 34
Wind_Direction
219 196 216 220 211 210 210 212 216 223 226 229 240 252 254 261 270 273 274 276 277 273 272 272 274 281 286 290 290 293 290 294 298 295 286 287 288 285 284 279 278 282 282
211 214 210 210 207 201 199 205 216 227 229 232 239 250 259 266 274 274 273 276 276 277 274 277 275 279 282 284 286 287 290 288 289 295 295 294 292 289 289 281 277 280 280
191 203 211 208 207 205 203 211 221 229 241 241 244 253 263 269 271 269 271 276 279 279 278 276 277 277 279 281 282 282 286 282 286 290 290 291 291 293 293 286 280 278 279
202 205 214 210 206 213 221 227 230 240 246 251 256 260 267 276 277 279 283 286 283 283 281 277 281 280 280 281 280 283 286 284 285 289 294 297 295 294 291 284 281 278 279
249 224 231 232 223 221 228 231 236 245 250 255 263 270 272 280 290 291 290 292 292 292 286 279 279 278 280 283 279 281 286 289 290 289 293 294 293 290 288 286 283 279 281
347 288 261 237 238 238 238 239 238 244 254 258 265 269 277 286 293 296 296 300 298 290 287 281 278 279 279 281 277 282 284 289 290 289 290 291 288 285 285 287 282 281 282
10 350 303 272 270 254 250 250 249 250 255 256 263 271 277 286 290 296 299 298 298 297 292 283 276 277 279 281 278 278 283 286 290 287 286 287 286 287 283 284 283 279 281
337 328 306 287 273 261 263 259 254 254 258 262 265 270 275 283 287 298 298 299 301 300 296 289 282 278 277 280 281 282 285 287 288 286 285 285 285 285 282 281 284 282 280
333 326 314 311 287 278 273 261 256 258 263 266 270 274 280 285 287 293 297 303 303 300 296 290 290 287 280 284 285 286 288 290 290 290 288 289 290 288 285 283 282 282 285
334 322 308 309 302 293 280 269 270 272 273 272 275 279 283 285 287 289 295 297 296 294 293 293 290 286 283 284 284 285 288 289 291 292 290 290 291 289 287 284 284 285 284
334 331 319 317 313 305 295 288 286 284 282 280 280 286 289 284 286 290 292 294 296 295 294 294 289 286 288 290 288 288 289 289 289 292 294 290 287 286 287 285 285 285 284
327 328 324 318 319 311 302 299 295 292 291 288 288 293 292 289 289 293 296 294 296 299 296 294 291 288 291 291 289 286 285 285 287 289 290 290 290 288 288 285 284 283 281
312 313 313 310 307 305 304 302 301 300 298 299 299 299 300 300 298 297 296 295 295 295 295 294 290 287 288 288 288 285 283 281 282 284 283 285 286 286 286 283 284 283 282
315 309 306 304 303 305 308 309 304 299 296 297 298 299 300 301 300 297 295 294 295 295 294 292 288 285 286 288 289 287 284 284 283 282 282 282 283 284 284 283 284 283 284
302 304 305 306 305 304 302 299 298 296 293 292 292 294 296 297 297 295 295 296 296 297 298 296 292 289 288 286 287 286 286 287 286 285 285 284 283 284 284 283 284 284 284
295 297 298 300 303 306 306 302 300 298 297 295 295 295 294 296 299 297 296 296 298 297 295 296 295 292 291 290 289 288 287 287 287 287 286 285 284 284 284 283 284 285 283
292 293 294 296 299 299 300 300 299 299 300 300 299 299 299 298 298 296 294 293 295 296 295 293 295 294 292 291 290 289 288 287 287 287 287 286 284 283 283 283 282 284 284
288 290 290 292 293 294 295 297 297 299 300 300 300 300 299 298 297 296 294 292 293 295 295 294 292 292 291 290 290 289 287 286 286 285 285 284 283 282 282 283 282 282 282
285 287 287 288 290 291 293 294 294 297 298 298 298 298 298 299 298 297 295 294 293 291 292 292 291 290 288 289 288 289 288 287 286 285 284 284 283 281 282 283 282 282 282
284 285 287 289 290 290 290 291 292 293 295 295 296 296 296 297 295 294 293 294 293 292 291 291 290 289 287 287 287 288 288 287 286 285 284 283 281 280 280 280 281 280 280
285 285 287 289 289 288 289 289 289 290 292 293 294 294 294 294 293 292 291 291 291 292 292 291 290 290 288 286 287 287 287 287 286 284 282 282 280 279 280 280 281 280 280
287 288 288 288 287 288 289 288 288 288 289 291 292 292 292 292 291 291 290 290 290 291 292 291 289 290 289 287 286 286 285 285 285 284 282 282 281 281 279 278 279 279 278
286 288 289 288 288 288 288 289 289 288 289 289 290 290 290 291 290 289 289 289 288 289 290 290 290 290 289 289 288 288 288 287 285 283 283 283 283 282 280 278 277 278 278
285 288 290 289 288 288 289 289 289 289 290 289 290 291 291 290 292 292 290 288 286 287 289 289 290 290 289 289 289 288 287 286 284 285 285 285 285 284 282 280 279 279 278
282 286 289 289 289 289 288 288 287 288 289 289 289 289 290 291 291 291 290 289 287 287 288 289 289 289 288 288 288 288 287 285 283 283 283 283 283 283 282 281 279 279 278
283 285 288 288 288 289 288 287 287 287 288 288 288 289 289 290 290 290 289 288 288 288 287 287 289 288 287 287 287 287 286 284 283 281 282 282 282 282 281 280 280 279 278
Height
5879 5880 5881 5882 5883 5885 5887 5889 5892 5893 5895 5896 5897 5898 5899 5899 5899 5900 5901 5901 5901 5902 5902 5902 5903 5903 5903 5903 5903 5903 5903 5903 5903 5902 5903 5903 5903 5903 5902 5902 5902 5902 5902
5880 5881 5882 5883 5884 5885 5887 5890 5892 5893 5894 5895 5896 5897 5898 5898 5898 5899 5899 5900 5900 5901 5901 5901 5902 5902 5902 5902 5902 5902 5901 5902 5901 5901 5901 5901 5901 5901 5901 5900 5901 5900 5900
5880 5881 5882 5883 5885 5886 5888 5890 5891 5893 5894 5894 5895 5896 5897 5897 5898 5898 5898 5899 5899 5899 5900 5900 5900 5900 5900 5900 5900 5900 5900 5900 5900 5900 5900 5900 5900 5899 5899 5899 5898 5898 5898
5881 5882 5883 5884 5885 5887 5888 5890 5891 5892 5893 5894 5894 5895 5895 5896 5896 5897 5897 5897 5897 5898 5898 5898 5898 5898 5898 5898 5898 5898 5898 5898 5898 5898 5898 5898 5898 5897 5897 5896 5896 5896 5896
5882 5883 5884 5885 5886 5887 5888 5889 5890 5892 5893 5893 5894 5894 5895 5895 5895 5895 5895 5896 5896 5896 5896 5896 5896 5896 5897 5896 5897 5896 5896 5896 5896 5896 5896 5895 5895 5895 5894 5894 5894 5894 5894
5883 5884 5884 5885 5886 5887 5888 5889 5890 5891 5892 5892 5893 5893 5893 5894 5894 5894 5894 5894 5894 5894 5894 5894 5894 5894 5894 5895 5895 5894 5894 5894 5894 5893 5893 5893 5892 5892 5892 5892 5891 5891 5891
5884 5884 5885 5886 5886 5886 5887 5888 5889 5890 5890 5891 5892 5892 5892 5892 5892 5892 5892 5892 5892 5892 5892 5892 5892 5892 5892 5892 5892 5892 5891 5891 5891 5891 5890 5890 5890 5889 5889 5889 5888 5888 5888
5885 5885 5885 5885 5886 5886 5887 5887 5888 5889 5889 5890 5890 5891 5891 5892 5891 5891 5890 5890 5890 5890 5890 5890 5890 5890 5890 5890 5890 5889 5889 5888 5888 5887 5887 5887 5886 5886 5885 5885 5885 5885 5884
5885 5885 5885 5886 5886 5886 5886 5887 5887 5888 5888 5888 5889 5890 5890 5890 5890 5890 5889 5888 5888 5888 5888 5887 5888 5887 5887 5887 5887 5886 5886 5886 5885 5885 5884 5883 5883 5883 5882 5882 5882 5882 5881
5885 5885 5885 5885 5885 5885 5886 5886 5886 5887 5887 5887 5887 5887 5888 5888 5888 5888 5888 5887 5886 5886 5885 5885 5885 5884 5884 5884 5883 5883 5883 5882 5882 5882 5881 5881 5880 5880 5879 5879 5879 5878 5878
5886 5886 5885 5885 5885 5885 5885 5885 5886 5886 5886 5886 5886 5886 5886 5886 5886 5886 5886 5885 5884 5883 5883 5882 5881 5881 5880 5880 5880 5880 5880 5879 5879 5878 5878 5877 5877 5876 5876 5875 5875 5874 5874
5885 5885 5885 5885 5885 5884 5885 5885 5885 5885 5885 5884 5884 5884 5883 5883 5883 5883 5883 5882 5882 5881 5880 5879 5878 5878 5877 5877 5877 5876 5876 5876 5875 5875 5874 5874 5873 5873 5872 5872 5871 5870 5870
5885 5885 5885 5884 5884 5884 5884 5883 5883 5883 5883 5883 5882 5881 5881 5880 5880 5880 5879 5879 5878 5877 5876 5876 5875 5874 5874 5873 5873 5872 5872 5872 5871 5871 5870 5870 5869 5868 5868 5867 5867 5866 5865
5884 5884 5884 5883 5883 5882 5882 5882 5881 5881 5881 5881 5880 5879 5879 5878 5877 5876 5876 5875 5874 5873 5872 5871 5870 5870 5869 5869 5869 5868 5867 5867 5867 5866 5865 5865 5864 5864 5863 5862 5862 5861 5860
5882 5882 5882 5882 5881 5881 5880 5880 5879 5879 5878 5878 5877 5877 5876 5875 5874 5873 5872 5871 5870 5869 5868 5867 5866 5865 5865 5865 5864 5863 5863 5862 5861 5861 5860 5860 5859 5858 5858 5857 5856 5855 5854
5880 5880 5880 5879 5879 5878 5878 5877 5877 5876 5875 5874 5874 5873 5872 5871 5870 5869 5868 5867 5866 5865 5864 5862 5861 5860 5860 5859 5859 5858 5858 5857 5856 5855 5854 5854 5853 5852 5852 5851 5850 5849 5848
5878 5878 5877 5877 5876 5876 5875 5874 5873 5873 5872 5871 5870 5869 5868 5867 5866 5865 5864 5862 5861 5860 5859 5858 5857 5856 5855 5854 5854 5853 5852 5851 5850 5850 5849 5848 5847 5846 5845 5845 5844 5843 5842
5875 5874 5874 5873 5873 5872 5872 5871 5870 5869 5868 5867 5866 5865 5864 5863 5862 5860 5859 5858 5856 5855 5854 5853 5852 5851 5850 5849 5848 5847 5846 5846 5845 5844 5843 5842 5841 5840 5839 5838 5837 5836 5836
5870 5870 5870 5869 5869 5868 5867 5867 5866 5865 5864 5863 5861 5860 5859 5858 5856 5855 5854 5853 5851 5850 5849 5848 5847 5846 5845 5844 5843 5842 5840 5839 5838 5837 5836 5835 5834 5833 5832 5831 5830 5829 5828
5866 5866 5865 5864 5864 5863 5862 5862 5861 5860 5859 5857 5856 5855 5853 5852 5851 5849 5848 5847 5846 5844 5843 5842 5841 5840 5839 5837 5836 5835 5834 5833 5831 5830 5829 5828 5827 5826 5825 5824 5823 5822 5821
5861 5860 5860 5859 5859 5858 5857 5856 5855 5854 5853 5852 5850 5849 5848 5846 5845 5843 5842 5841 5840 5838 5837 5835 5834 5833 5832 5831 5829 5828 5827 5825 5824 5822 5821 5820 5819 5819 5817 5816 5815 5814 5814
5855 5854 5854 5853 5852 5851 5851 5849 5849 5848 5847 5845 5844 5843 5842 5840 5839 5837 5835 5834 5833 5832 5830 5828 5827 5826 5825 5823 5821 5819 5818 5817 5816 5815 5813 5812 5811 5810 5809 5808 5807 5807 5806
5849 5848 5848 5847 5846 5844 5843 5842 5841 5840 5839 5838 5837 5835 5834 5833 5831 5830 5828 5827 5825 5824 5823 5821 5819 5817 5816 5815 5813 5812 5810 5808 5807 5806 5805 5803 5802 5801 5800 5799 5799 5798 5797
5842 5841 5840 5839 5838 5837 5836 5835 5834 5833 5831 5830 5829 5827 5826 5824 5823 5821 5820 5818 5817 5816 5814 5812 5811 5809 5808 5806 5804 5803 5801 5799 5798 5797 5795 5795 5793 5792 5791 5790 5789 5788 5787
5835 5834 5833 5831 5830 5828 5827 5826 5825 5824 5823 5822 5821 5819 5817 5815 5814 5812 5811 5810 5808 5807 5805 5803 5802 5800 5798 5796 5794 5792 5791 5789 5788 5787 5786 5784 5784 5783 5782 5780 5779 5778 5777
5828 5827 5826 5824 5822 5820 5819 5817 5816 5815 5814 5813 5812 5810 5808 5807 5805 5803 5801 5800 5798 5797 5795 5793 5791 5790 5788 5786 5784 5782 5780 5778 5777 5776 5776 5774 5773 5772 5771 5770 5769 5768 5767